FW7263 Weather Reports


time (UTC)temp
F
wind
direction
speed
knots
gust
knots
rain 1hr
in
rain 24hr
in
rain mn
in
humidity
%
barometer
mb
20260505065107 56 186 0.0 0.0 0.00 0.00 0.00 90 1010.8
20260505064604 56 188 0.0 0.0 0.00 0.00 0.00 90 1010.8
20260505064102 56 188 0.0 0.0 0.00 0.00 0.00 89 1010.8
20260505063559 57 189 0.9 1.7 0.00 0.00 0.00 89 1010.9
20260505063055 57 176 1.7 1.7 0.00 0.00 0.00 90 1010.6
20260505062551 57 185 1.7 1.7 0.00 0.00 0.00 89 1010.7
20260505062049 57 189 0.0 0.0 0.00 0.00 0.00 89 1010.7
20260505061546 57 182 0.0 0.9 0.00 0.00 0.00 89 1010.8
20260505061044 57 192 0.0 0.0 0.00 0.00 0.00 89 1010.9
20260505060541 57 186 0.9 0.9 0.00 0.00 0.00 89 1011.0
20260505060037 57 198 0.9 0.9 0.00 0.00 0.00 88 1010.9
20260505055533 57 186 0.0 0.9 0.00 0.00 0.00 88 1010.8
20260505055030 57 199 0.0 0.9 0.00 0.00 0.00 89 1010.8
20260505054527 57 186 0.0 0.9 0.00 0.00 0.00 89 1010.8
20260505054025 57 183 0.0 0.9 0.00 0.00 0.00 89 1010.9
20260505053522 57 197 0.9 0.9 0.00 0.00 0.00 89 1011.0
20260505053019 56 191 0.0 0.9 0.00 0.00 0.00 89 1011.1
20260505052516 56 191 0.0 0.9 0.00 0.00 0.00 89 1010.9
20260505052013 56 191 0.0 0.9 0.00 0.00 0.00 89 1011.2
20260505051510 56 185 0.0 0.0 0.00 0.00 0.00 90 1011.0
20260505051008 56 193 0.0 0.9 0.00 0.00 0.00 89 1011.2
20260505050506 56 187 0.0 0.0 0.00 0.00 0.00 89 1011.1
20260505041434 57 184 0.0 0.9 0.00 0.00 0.00 86 1011.3
20260505040931 57 184 0.0 0.0 0.00 0.00 0.00 86 1011.3
20260505040428 57 184 0.0 0.9 0.00 0.00 0.00 86 1011.0
20260505035925 57 182 0.9 1.7 0.00 0.00 0.00 85 1011.2
20260505035421 57 182 0.9 1.7 0.00 0.00 0.00 85 1011.0
20260505034918 57 186 0.0 1.7 0.00 0.00 0.00 84 1011.1
20260505034415 57 132 0.0 0.9 0.00 0.00 0.00 84 1011.0
20260505033912 57 194 0.0 1.7 0.00 0.00 0.00 83 1011.1
20260505033408 58 186 0.0 1.7 0.00 0.00 0.00 82 1011.0
20260505032907 57 186 0.9 1.7 0.00 0.00 0.00 82 1011.2
20260505032403 58 181 0.9 1.7 0.00 0.00 0.00 81 1011.4
20260505031900 58 182 0.9 0.9 0.00 0.00 0.00 81 1011.3
20260505031357 58 190 0.9 2.6 0.00 0.00 0.00 80 1011.4
20260505030854 58 183 0.0 0.0 0.00 0.00 0.00 79 1011.1
20260505030350 58 184 0.0 0.9 0.00 0.00 0.00 79 1011.4
20260505025845 58 188 0.0 0.9 0.00 0.00 0.00 79 1011.4
20260505025343 58 188 0.0 0.0 0.00 0.00 0.00 78 1011.6
20260505024842 58 187 0.0 0.0 0.00 0.00 0.00 78 1011.3
20260505024339 58 184 0.0 0.0 0.00 0.00 0.00 77 1011.2
20260505023836 58 183 0.9 1.7 0.00 0.00 0.00 77 1011.3
20260505023333 58 187 0.9 0.9 0.00 0.00 0.00 77 1011.4
20260505022830 59 192 0.0 0.0 0.00 0.00 0.00 76 1011.4
20260505022327 59 183 0.0 0.0 0.00 0.00 0.00 76 1011.3
20260505021824 59 182 0.0 0.9 0.00 0.00 0.00 75 1011.5
20260505021321 60 184 0.0 0.9 0.00 0.00 0.00 74 1011.5
20260505020816 59 173 0.0 2.6 0.00 0.00 0.00 75 1011.6
20260505015116 59 181 0.9 0.9 0.00 0.00 0.00 75 1011.3
20260505014613 59 181 0.9 0.9 0.00 0.00 0.00 75 1011.3
20260505014110 59 181 0.9 0.9 0.00 0.00 0.00 75 1011.3
20260505013607 59 183 0.0 0.9 0.00 0.00 0.00 75 1011.5
20260505013104 59 185 0.0 0.0 0.00 0.00 0.00 75 1011.4
20260505012602 59 185 0.0 0.0 0.00 0.00 0.00 75 1011.3
20260505012059 59 185 0.0 0.0 0.00 0.00 0.00 74 1011.3
20260505011554 59 185 0.0 0.0 0.00 0.00 0.00 73 1011.2
20260505011052 60 185 0.0 0.0 0.00 0.00 0.00 72 1011.2
20260505010547 60 185 0.0 0.9 0.00 0.00 0.00 71 1011.0
20260505010044 60 186 0.0 0.9 0.00 0.00 0.00 71 1010.9
20260505005540 61 185 0.0 0.0 0.00 0.00 0.00 70 1010.9
20260505005038 61 188 0.0 0.9 0.00 0.00 0.00 70 1011.0
20260505004535 61 184 0.0 1.7 0.00 0.00 0.00 70 1011.0
20260505004032 61 150 1.7 2.6 0.00 0.00 0.00 70 1011.0
20260505003529 61 177 0.9 1.7 0.00 0.00 0.00 70 1011.1
20260505003026 61 169 0.0 1.7 0.00 0.00 0.00 71 1011.0
20260505002527 61 180 0.0 1.7 0.00 0.00 0.00 70 1010.9
20260505002026 61 185 0.0 0.0 0.00 0.00 0.00 71 1011.1
20260505001523 62 183 0.0 0.9 0.00 0.00 0.00 71 1010.7
20260505001020 62 181 0.0 1.7 0.00 0.00 0.00 70 1010.7
20260505000517 62 180 0.0 0.9 0.00 0.00 0.00 70 1010.6
20260505000015 63 185 1.7 1.7 0.00 0.00 0.00 69 1010.7
20260504235511 63 178 0.9 0.9 0.00 0.00 0.00 68 1010.8
20260504235008 64 183 0.0 1.7 0.00 0.00 0.00 67 1010.6
20260504234505 64 183 0.0 1.7 0.00 0.00 0.00 67 1010.6
20260504234002 64 183 0.0 1.7 0.00 0.00 0.00 67 1010.6
20260504233457 64 177 1.7 2.6 0.00 0.00 0.00 66 1010.4
20260504232954 64 169 1.7 2.6 0.00 0.00 0.00 66 1010.4
20260504232451 65 175 1.7 1.7 0.00 0.00 0.00 65 1010.5
20260504231949 65 182 0.9 0.9 0.00 0.00 0.00 63 1010.5
20260504231445 66 165 0.9 4.3 0.00 0.00 0.00 61 1010.4
20260504230941 66 87 1.7 2.6 0.00 0.00 0.00 60 1010.3
20260504230438 66 178 0.9 1.7 0.00 0.00 0.00 58 1010.3
20260504225937 67 186 0.9 1.7 0.00 0.00 0.00 58 1010.4
20260504225433 67 174 1.7 2.6 0.00 0.00 0.00 57 1010.4
20260504224931 67 178 1.7 2.6 0.00 0.00 0.00 57 1010.5
20260504224427 67 177 1.7 1.7 0.00 0.00 0.00 57 1010.1
20260504223924 68 170 0.0 0.9 0.00 0.00 0.00 55 1010.3
20260504223420 68 208 0.9 1.7 0.00 0.00 0.00 54 1010.2
20260504222916 69 166 0.9 1.7 0.00 0.00 0.00 53 1010.4
20260504222414 69 164 1.7 2.6 0.00 0.00 0.00 50 1010.3
20260504221912 69 164 1.7 2.6 0.00 0.00 0.00 50 1010.2
20260504221408 69 176 3.5 4.3 0.00 0.00 0.00 50 1010.4
20260504220905 69 117 2.6 4.3 0.00 0.00 0.00 50 1010.2
20260504220402 69 186 1.7 4.3 0.00 0.00 0.00 50 1010.2
20260504215859 70 157 5.2 6.1 0.00 0.00 0.00 49 1010.2
20260504215355 69 184 0.9 0.9 0.00 0.00 0.00 50 1010.3
20260504214851 70 192 0.9 5.2 0.00 0.00 0.00 49 1010.2
20260504214349 71 174 2.6 2.6 0.00 0.00 0.00 47 1010.2
20260504213845 71 178 2.6 2.6 0.00 0.00 0.00 46 1010.2
20260504213341 70 184 3.5 5.2 0.00 0.00 0.00 46 1010.0
20260504212839 71 167 2.6 4.3 0.00 0.00 0.00 46 1010.1
20260504212334 71 196 0.9 4.3 0.00 0.00 0.00 47 1010.2
20260504211833 71 167 2.6 4.3 0.00 0.00 0.00 46 1010.2
20260504211328 72 83 2.6 5.2 0.00 0.00 0.00 46 1009.8
20260504210826 73 174 1.7 2.6 0.00 0.00 0.00 45 1010.1
20260504210322 74 105 5.2 6.1 0.00 0.00 0.00 44 1010.2
20260504205820 75 202 1.7 5.2 0.00 0.00 0.00 35 1010.1
20260504205317 75 166 2.6 4.3 0.00 0.00 0.00 42 1010.1
20260504204815 74 191 1.7 1.7 0.00 0.00 0.00 43 1010.2
20260504204314 75 228 4.3 7.8 0.00 0.00 0.00 33 1010.3
20260504203813 75 231 5.2 7.0 0.00 0.00 0.00 32 1010.1
20260504203309 75 173 3.5 4.3 0.00 0.00 0.00 34 1010.3
20260504202804 75 199 5.2 6.1 0.00 0.00 0.00 32 1010.2
20260504202304 74 225 1.7 5.2 0.00 0.00 0.00 34 1010.2
20260504201759 75 195 2.6 4.3 0.00 0.00 0.00 34 1010.2
20260504201256 75 95 2.6 4.3 0.00 0.00 0.00 34 1010.1
20260504200754 74 159 2.6 2.6 0.00 0.00 0.00 33 1010.5
20260504200249 74 291 2.6 5.2 0.00 0.00 0.00 34 1010.3
20260504195746 75 230 2.6 2.6 0.00 0.00 0.00 36 1010.5
20260504195242 77 197 2.6 4.3 0.00 0.00 0.00 35 1010.6
20260504194739 77 197 2.6 4.3 0.00 0.00 0.00 35 1010.6
20260504194235 77 225 2.6 4.3 0.00 0.00 0.00 34 1010.6
20260504193731 76 180 2.6 4.3 0.00 0.00 0.00 33 1010.4
20260504193229 76 193 1.7 2.6 0.00 0.00 0.00 35 1010.4
20260504192727 75 202 1.7 1.7 0.00 0.00 0.00 36 1010.7
20260504192225 76 190 0.9 1.7 0.00 0.00 0.00 35 1010.9
20260504191724 74 251 7.0 8.7 0.00 0.00 0.00 35 1010.9
20260504191220 74 195 0.9 2.6 0.00 0.00 0.00 36 1010.6
20260504190646 75 194 0.9 2.6 0.00 0.00 0.00 37 1011.0
20260504190143 75 194 0.9 2.6 0.00 0.00 0.00 37 1011.0
20260504185639 75 198 1.7 2.6 0.00 0.00 0.00 35 1011.3
20260504185136 75 167 1.7 1.7 0.00 0.00 0.00 34 1011.1
20260504184631 76 194 0.9 2.6 0.00 0.00 0.00 38 1011.2
20260504184126 75 205 2.6 2.6 0.00 0.00 0.00 37 1011.2
20260504180351 75 199 3.5 4.3 0.00 0.00 0.00 34 1012.0
20260504175849 75 199 3.5 4.3 0.00 0.00 0.00 34 1012.0
20260504175345 75 199 3.5 4.3 0.00 0.00 0.00 34 1012.0
20260504174843 73 173 0.0 1.7 0.00 0.00 0.00 34 1012.0
20260504174341 74 218 2.6 4.3 0.00 0.00 0.00 36 1012.0
20260504173837 73 232 1.7 2.6 0.00 0.00 0.00 36 1011.8
20260504173334 72 198 0.9 0.9 0.00 0.00 0.00 36 1012.2
20260504172831 73 135 1.7 2.6 0.00 0.00 0.00 36 1012.2
20260504172328 72 190 2.6 4.3 0.00 0.00 0.00 37 1012.4
20260504171824 73 245 4.3 6.1 0.00 0.00 0.00 38 1012.4
20260504171321 73 167 2.6 2.6 0.00 0.00 0.00 36 1012.4
20260504170818 73 208 1.7 5.2 0.00 0.00 0.00 37 1012.4
20260504170315 74 180 1.7 4.3 0.00 0.00 0.00 37 1012.5
20260504160233 71 209 0.9 2.6 0.00 0.00 0.00 42 1013.2
20260504150659 69 178 0.9 2.6 0.00 0.00 0.00 50 1013.7
20260504150155 67 187 0.9 0.9 0.00 0.00 0.00 52 1013.8
20260504141124 66 207 1.7 5.2 0.00 0.00 0.00 53 1014.2
20260504140621 66 195 0.9 2.6 0.00 0.00 0.00 56 1014.1
20260504140117 64 199 2.6 4.3 0.00 0.00 0.00 53 1014.1
20260504130545 63 68 2.6 5.2 0.00 0.00 0.00 58 1014.7
20260504110433 44 196 0.0 0.0 0.00 0.00 0.00 91 1015.7
20260504100349 39 199 0.0 0.0 0.00 0.00 0.00 93 1015.7
20260504081742 41 198 0.0 0.0 0.00 0.00 0.00 88 1015.6
20260504081239 41 198 0.0 0.0 0.00 0.00 0.00 88 1015.5
20260504080735 41 198 0.0 0.0 0.00 0.00 0.00 88 1015.4
20260504080232 41 198 0.0 0.0 0.00 0.00 0.00 88 1015.2
20260504070200 41 192 0.0 0.0 0.00 0.00 0.00 87 1015.1